Hourly Data Report for January 11, 2004

All times are specified in Local Standard Time (LST). Add 1 hour to adjust for Daylight Saving Time where and when it is observed.

SHERBROOKE A
QUEBEC

45°26'00.000" N
71°41'00.000" W
241.40 m
7028124
71610
YSC

Download Data

Hourly Data (January 2004)
Hourly Data Report for January 11, 2004
TIME Temp Definition
°C
Dew Point Definition
°C
Rel Hum Definition
%
Wind Dir Definition
10's deg

Wind Spd Definition
km/h
Visibility Definition
km
Stn Press Definition
kPa
Hmdx Definition


Wind Chill Definition


Weather Definition


00:00 -32.4 -37.3 62 11 4 15.0 99.60   -37  
01:00 -34.4 -40.0 57   0 15.0 99.59      
02:00 -33.3 -37.9 63 9 4 15.0 99.59   -38  
03:00 -34.6 -39.6 60 9 4 15.0 99.60   -40  
04:00 -34.6 -39.7 60 8 4 15.0 99.55   -40  
05:00 -34.6 -39.6 60 9 4 15.0 99.50   -40  
06:00 -31.3 -36.7 59 8 4 15.0 99.48   -36  
07:00 -30.0 -35.0 62 9 4 15.0 99.42   -35  
08:00 -27.7 -32.7 62 9 4 24.1 99.32   -32 Cloudy
09:00 -24.7 -29.7 63 3 4 19.3 99.22   -29 Snow
10:00 -21.5 -26.5 64 10 4 4.8 99.11   -25 Snow
11:00 -19.1 -24.8 61 8 4 24.1 98.90   -22 Mostly Cloudy
12:00 -17.6 -23.6 59 36 4 12.9 98.74   -21 Snow
13:00 -16.3 -22.1 61   0 4.8 98.61     Snow
14:00 -14.2 -18.2 72 22 4 1.6 98.50   -17 Snow
15:00 -12.1 -15.8 74 21 13 3.2 98.47   -19 Snow
16:00 -11.9 -15.6 74 21 11 4.0 98.46   -18 Snow Showers
17:00 -12.4 -15.2 80 22 4 3.2 98.46   -15 Snow
18:00 -12.7 -15.1 82   0 2.1 98.49     Snow
19:00 -13.3 -15.6 83   0 3.1 98.47     Snow
20:00 -13.3 -15.6 83   0 4.8 98.44     Snow
21:00 -12.8 -15.1 83   0 3.5 98.41     Snow
22:00 -12.6 -14.6 85   0 5.6 98.37     Snow
23:00 -12.4 -14.5 84   0 15.0 98.34     Snow

Notes on Data Quality.

Legend

  • E = Estimated
  • M = Missing
  • NA = Not Available
Date modified: